Data supplied by UK-AIR on 19/5/2021
All Data GMT hour ending 
Status: R =Ratified P=Provisional,P*=As supplied
,,Sunderland Wessington Way,,,,,,,,,,,,,,,,,,,,,,,
Date,time,"Nitric oxide",status,unit,"Nitrogen dioxide",status,unit,"Nitrogen oxides as nitrogen dioxide",status,unit
 
01-01-2020,01:00,1.91992,R,ugm-3,9.83939,R,ugm-3,12.78323,R,ugm-3
01-01-2020,02:00,3.69936,R,ugm-3,13.04351,R,ugm-3,18.71578,R,ugm-3
01-01-2020,03:00,6.21633,R,ugm-3,16.47630,R,ugm-3,26.00787,R,ugm-3
01-01-2020,04:00,4.74127,R,ugm-3,12.32876,R,ugm-3,19.59860,R,ugm-3
01-01-2020,05:00,3.02036,R,ugm-3,11.57741,R,ugm-3,16.20857,R,ugm-3
01-01-2020,06:00,4.56567,R,ugm-3,11.53863,R,ugm-3,18.53922,R,ugm-3
01-01-2020,07:00,1.36970,R,ugm-3,6.63974,R,ugm-3,8.73992,R,ugm-3
01-01-2020,08:00,1.96675,R,ugm-3,10.70338,R,ugm-3,13.71902,R,ugm-3
01-01-2020,09:00,3.72277,R,ugm-3,18.86953,R,ugm-3,24.57771,R,ugm-3
01-01-2020,10:00,5.44368,R,ugm-3,22.16340,R,ugm-3,30.51026,R,ugm-3
01-01-2020,11:00,13.59164,R,ugm-3,27.30878,R,ugm-3,48.14900,R,ugm-3
01-01-2020,12:00,10.32543,R,ugm-3,21.72305,R,ugm-3,37.55516,R,ugm-3
01-01-2020,13:00,10.71176,R,ugm-3,18.85302,R,ugm-3,35.27748,R,ugm-3
01-01-2020,14:00,12.50290,R,ugm-3,21.40355,R,ugm-3,40.57440,R,ugm-3
01-01-2020,15:00,14.29405,R,ugm-3,26.97333,R,ugm-3,48.89057,R,ugm-3
01-01-2020,16:00,14.15357,R,ugm-3,31.26736,R,ugm-3,52.96919,R,ugm-3
01-01-2020,17:00,7.48067,R,ugm-3,24.76073,R,ugm-3,36.23093,R,ugm-3
01-01-2020,18:00,11.76537,R,ugm-3,28.20212,R,ugm-3,46.24211,R,ugm-3
01-01-2020,19:00,12.11658,R,ugm-3,37.30401,R,ugm-3,55.88250,R,ugm-3
01-01-2020,20:00,13.73212,R,ugm-3,38.74659,R,ugm-3,59.80222,R,ugm-3
01-01-2020,21:00,9.51766,R,ugm-3,26.19274,R,ugm-3,40.78628,R,ugm-3
01-01-2020,22:00,2.84476,R,ugm-3,13.27684,R,ugm-3,17.63874,R,ugm-3
01-01-2020,23:00,2.77452,R,ugm-3,12.90781,R,ugm-3,17.16202,R,ugm-3
01-01-2020,24:00,1.36970,R,ugm-3,10.18868,R,ugm-3,12.28885,R,ugm-3
02-01-2020,01:00,1.54641,R,ugm-3,8.51121,R,ugm-3,10.88233,R,ugm-3
02-01-2020,02:00,1.59327,R,ugm-3,5.68344,R,ugm-3,8.12642,R,ugm-3
02-01-2020,03:00,0.94893,R,ugm-3,3.95083,R,ugm-3,5.40583,R,ugm-3
02-01-2020,04:00,0.56233,R,ugm-3,3.16565,R,ugm-3,4.02788,R,ugm-3
02-01-2020,05:00,0.98408,R,ugm-3,3.10196,R,ugm-3,4.61086,R,ugm-3
02-01-2020,06:00,0.98408,R,ugm-3,3.52595,R,ugm-3,5.03484,R,ugm-3
02-01-2020,07:00,2.00330,R,ugm-3,5.88504,R,ugm-3,8.95672,R,ugm-3
02-01-2020,08:00,4.07689,R,ugm-3,11.45031,R,ugm-3,17.70145,R,ugm-3
02-01-2020,09:00,7.13455,R,ugm-3,13.49275,R,ugm-3,24.43225,R,ugm-3
02-01-2020,10:00,5.23669,R,ugm-3,15.23680,R,ugm-3,23.26628,R,ugm-3
02-01-2020,11:00,6.43164,R,ugm-3,15.10052,R,ugm-3,24.96223,R,ugm-3
02-01-2020,12:00,11.63319,R,ugm-3,22.28246,R,ugm-3,40.11976,R,ugm-3
02-01-2020,13:00,8.08348,R,ugm-3,16.11862,R,ugm-3,28.51312,R,ugm-3
02-01-2020,14:00,7.20484,R,ugm-3,17.04186,R,ugm-3,28.08913,R,ugm-3
02-01-2020,15:00,8.29436,R,ugm-3,16.80225,R,ugm-3,29.52009,R,ugm-3
02-01-2020,16:00,5.44757,R,ugm-3,12.21055,R,ugm-3,20.56336,R,ugm-3
02-01-2020,17:00,5.90446,R,ugm-3,15.06088,R,ugm-3,24.11426,R,ugm-3
02-01-2020,18:00,5.83417,R,ugm-3,18.66655,R,ugm-3,27.61215,R,ugm-3
02-01-2020,19:00,3.51456,R,ugm-3,14.64447,R,ugm-3,20.03338,R,ugm-3
02-01-2020,20:00,2.56563,R,ugm-3,9.31568,R,ugm-3,13.24959,R,ugm-3
02-01-2020,21:00,1.58155,R,ugm-3,6.10773,R,ugm-3,8.53274,R,ugm-3
02-01-2020,22:00,0.84349,R,ugm-3,3.74151,R,ugm-3,5.03484,R,ugm-3
02-01-2020,23:00,1.08951,R,ugm-3,3.68227,R,ugm-3,5.35284,R,ugm-3
02-01-2020,24:00,1.01922,R,ugm-3,3.52506,R,ugm-3,5.08784,R,ugm-3
03-01-2020,01:00,0.42205,R,ugm-3,5.50406,R,ugm-3,6.15119,R,ugm-3
03-01-2020,02:00,0.93788,R,ugm-3,5.56157,R,ugm-3,6.99963,R,ugm-3
03-01-2020,03:00,0.66824,R,ugm-3,4.49024,R,ugm-3,5.51486,R,ugm-3
03-01-2020,04:00,0.21102,R,ugm-3,1.69148,R,ugm-3,2.01505,R,ugm-3
03-01-2020,05:00,0.07034,R,ugm-3,1.16481,R,ugm-3,1.27266,R,ugm-3
03-01-2020,06:00,0.87927,R,ugm-3,9.36337,R,ugm-3,10.71156,R,ugm-3
03-01-2020,07:00,4.53701,R,ugm-3,27.24610,R,ugm-3,34.20276,R,ugm-3
03-01-2020,08:00,5.76799,R,ugm-3,29.28267,R,ugm-3,38.12680,R,ugm-3
03-01-2020,09:00,6.47140,R,ugm-3,28.52229,R,ugm-3,38.44496,R,ugm-3
03-01-2020,10:00,5.94384,R,ugm-3,26.73285,R,ugm-3,35.84661,R,ugm-3
03-01-2020,11:00,6.96379,R,ugm-3,23.73721,R,ugm-3,34.41487,R,ugm-3
03-01-2020,12:00,7.28032,R,ugm-3,20.60048,R,ugm-3,31.76349,R,ugm-3
03-01-2020,13:00,5.97901,R,ugm-3,16.97489,R,ugm-3,26.14257,R,ugm-3
03-01-2020,14:00,8.30027,R,ugm-3,17.71090,R,ugm-3,30.43780,R,ugm-3
03-01-2020,15:00,6.04935,R,ugm-3,16.76098,R,ugm-3,26.03652,R,ugm-3
03-01-2020,16:00,6.89345,R,ugm-3,19.28470,R,ugm-3,29.85450,R,ugm-3
03-01-2020,17:00,6.19003,R,ugm-3,18.45426,R,ugm-3,27.94551,R,ugm-3
03-01-2020,18:00,3.97428,R,ugm-3,14.21573,R,ugm-3,20.30954,R,ugm-3
03-01-2020,19:00,3.34121,R,ugm-3,13.80771,R,ugm-3,18.93083,R,ugm-3
03-01-2020,20:00,2.35643,R,ugm-3,13.88594,R,ugm-3,17.49908,R,ugm-3
03-01-2020,21:00,1.89922,R,ugm-3,8.80700,R,ugm-3,11.71909,R,ugm-3
03-01-2020,22:00,1.58268,R,ugm-3,7.27730,R,ugm-3,9.70404,R,ugm-3
03-01-2020,23:00,1.26614,R,ugm-3,5.27035,R,ugm-3,7.21175,R,ugm-3
03-01-2020,24:00,0.98478,R,ugm-3,4.69425,R,ugm-3,6.20422,R,ugm-3
04-01-2020,01:00,1.17319,R,ugm-3,3.86052,R,ugm-3,5.65938,R,ugm-3
04-01-2020,02:00,0.61006,R,ugm-3,2.46022,R,ugm-3,3.39563,R,ugm-3
04-01-2020,03:00,0.95028,R,ugm-3,2.30994,R,ugm-3,3.76703,R,ugm-3
04-01-2020,04:00,0.38715,R,ugm-3,1.95310,R,ugm-3,2.54672,R,ugm-3
04-01-2020,05:00,0.52794,R,ugm-3,1.79029,R,ugm-3,2.59978,R,ugm-3
04-01-2020,06:00,0.70391,R,ugm-3,2.21020,R,ugm-3,3.28952,R,ugm-3
04-01-2020,07:00,0.95028,R,ugm-3,2.84051,R,ugm-3,4.29759,R,ugm-3
04-01-2020,08:00,1.05587,R,ugm-3,4.11114,R,ugm-3,5.73012,R,ugm-3
04-01-2020,09:00,2.67487,R,ugm-3,6.88132,R,ugm-3,10.98274,R,ugm-3
04-01-2020,10:00,3.13242,R,ugm-3,9.84068,R,ugm-3,14.64365,R,ugm-3
04-01-2020,11:00,3.87153,R,ugm-3,10.35215,R,ugm-3,16.28841,R,ugm-3
04-01-2020,12:00,4.50505,R,ugm-3,10.65412,R,ugm-3,17.56177,R,ugm-3
04-01-2020,13:00,6.79277,R,ugm-3,14.36204,R,ugm-3,24.77748,R,ugm-3
04-01-2020,14:00,18.86490,R,ugm-3,26.99598,R,ugm-3,55.92176,R,ugm-3
04-01-2020,15:00,9.50284,R,ugm-3,22.72804,R,ugm-3,37.29886,R,ugm-3
04-01-2020,16:00,5.63131,R,ugm-3,14.71039,R,ugm-3,23.34495,R,ugm-3
04-01-2020,17:00,5.38494,R,ugm-3,14.87592,R,ugm-3,23.13272,R,ugm-3
04-01-2020,18:00,10.87547,R,ugm-3,20.99476,R,ugm-3,37.67026,R,ugm-3
04-01-2020,19:00,5.38494,R,ugm-3,14.82287,R,ugm-3,23.07966,R,ugm-3
04-01-2020,20:00,3.66035,R,ugm-3,14.65520,R,ugm-3,20.26766,R,ugm-3
04-01-2020,21:00,3.51957,R,ugm-3,13.86298,R,ugm-3,19.25958,R,ugm-3
04-01-2020,22:00,2.88605,R,ugm-3,8.52062,R,ugm-3,12.94584,R,ugm-3
04-01-2020,23:00,2.21733,R,ugm-3,7.42371,R,ugm-3,10.82357,R,ugm-3
04-01-2020,24:00,2.71007,R,ugm-3,6.93347,R,ugm-3,11.08885,R,ugm-3
05-01-2020,01:00,3.00551,R,ugm-3,7.07051,R,ugm-3,11.67889,R,ugm-3
05-01-2020,02:00,0.98618,R,ugm-3,3.58412,R,ugm-3,5.09624,R,ugm-3
05-01-2020,03:00,1.05662,R,ugm-3,3.58228,R,ugm-3,5.20242,R,ugm-3
05-01-2020,04:00,0.81008,R,ugm-3,1.67762,R,ugm-3,2.91972,R,ugm-3
05-01-2020,05:00,1.19751,R,ugm-3,3.52552,R,ugm-3,5.36167,R,ugm-3
05-01-2020,06:00,0.52831,R,ugm-3,1.89731,R,ugm-3,2.70738,R,ugm-3
05-01-2020,07:00,0.95096,R,ugm-3,2.52332,R,ugm-3,3.98144,R,ugm-3
05-01-2020,08:00,1.30317,R,ugm-3,3.73511,R,ugm-3,5.73327,R,ugm-3
05-01-2020,09:00,2.04281,R,ugm-3,3.66273,R,ugm-3,6.79499,R,ugm-3
05-01-2020,10:00,2.14847,R,ugm-3,4.61552,R,ugm-3,7.90979,R,ugm-3
05-01-2020,11:00,3.73340,R,ugm-3,8.66180,R,ugm-3,14.38627,R,ugm-3
05-01-2020,12:00,5.42400,R,ugm-3,12.33372,R,ugm-3,20.65040,R,ugm-3
05-01-2020,13:00,5.03657,R,ugm-3,12.87468,R,ugm-3,20.59732,R,ugm-3
05-01-2020,14:00,8.62909,R,ugm-3,16.81551,R,ugm-3,30.04660,R,ugm-3
05-01-2020,15:00,6.62151,R,ugm-3,14.26667,R,ugm-3,24.41950,R,ugm-3
05-01-2020,16:00,4.61392,R,ugm-3,10.60301,R,ugm-3,17.67759,R,ugm-3
05-01-2020,17:00,4.15605,R,ugm-3,11.46433,R,ugm-3,17.83685,R,ugm-3
05-01-2020,18:00,3.16987,R,ugm-3,11.75548,R,ugm-3,16.61588,R,ugm-3
05-01-2020,19:00,3.90951,R,ugm-3,13.32876,R,ugm-3,19.32326,R,ugm-3
05-01-2020,20:00,3.76862,R,ugm-3,13.27935,R,ugm-3,19.05783,R,ugm-3
05-01-2020,21:00,2.07803,R,ugm-3,5.09513,R,ugm-3,8.28140,R,ugm-3
05-01-2020,22:00,0.84530,R,ugm-3,2.10139,R,ugm-3,3.39750,R,ugm-3
05-01-2020,23:00,0.84530,R,ugm-3,1.72979,R,ugm-3,3.02589,R,ugm-3
05-01-2020,24:00,0.70442,R,ugm-3,1.41495,R,ugm-3,2.49504,R,ugm-3
06-01-2020,01:00,0.56393,R,ugm-3,1.11828,R,ugm-3,1.98296,R,ugm-3
06-01-2020,02:00,0.46995,R,ugm-3,0.27091,R,ugm-3,0.99148,R,ugm-3
06-01-2020,03:00,0.45820,R,ugm-3,1.52828,R,ugm-3,2.23083,R,ugm-3
06-01-2020,04:00,0.52869,R,ugm-3,1.63265,R,ugm-3,2.44329,R,ugm-3
06-01-2020,05:00,0.88115,R,ugm-3,1.94206,R,ugm-3,3.29313,R,ugm-3
06-01-2020,06:00,1.58606,R,ugm-3,3.03892,R,ugm-3,5.47085,R,ugm-3
06-01-2020,07:00,6.66147,R,ugm-3,9.17289,R,ugm-3,19.38699,R,ugm-3
06-01-2020,08:00,5.85081,R,ugm-3,14.71819,R,ugm-3,23.68931,R,ugm-3
06-01-2020,09:00,8.84671,R,ugm-3,13.47079,R,ugm-3,27.03555,R,ugm-3
06-01-2020,10:00,6.34425,R,ugm-3,13.00552,R,ugm-3,22.73324,R,ugm-3
06-01-2020,11:00,8.42376,R,ugm-3,15.28784,R,ugm-3,28.20409,R,ugm-3
06-01-2020,12:00,8.31802,R,ugm-3,16.83096,R,ugm-3,29.58508,R,ugm-3
06-01-2020,13:00,8.52949,R,ugm-3,15.97555,R,ugm-3,29.05393,R,ugm-3
06-01-2020,14:00,13.64014,R,ugm-3,25.56106,R,ugm-3,46.47566,R,ugm-3
06-01-2020,15:00,13.78113,R,ugm-3,25.34489,R,ugm-3,46.47566,R,ugm-3
06-01-2020,16:00,9.44589,R,ugm-3,20.78489,R,ugm-3,35.26838,R,ugm-3
06-01-2020,17:00,10.11556,R,ugm-3,21.72334,R,ugm-3,37.23364,R,ugm-3
06-01-2020,18:00,9.90408,R,ugm-3,28.31517,R,ugm-3,43.50121,R,ugm-3
06-01-2020,19:00,3.98278,R,ugm-3,15.67032,R,ugm-3,21.77717,R,ugm-3
06-01-2020,20:00,2.74918,R,ugm-3,11.71917,R,ugm-3,15.93451,R,ugm-3
06-01-2020,21:00,2.50246,R,ugm-3,8.80434,R,ugm-3,12.64138,R,ugm-3
06-01-2020,22:00,1.90328,R,ugm-3,7.54535,R,ugm-3,10.46366,R,ugm-3
06-01-2020,23:00,1.02213,R,ugm-3,6.02821,R,ugm-3,7.59545,R,ugm-3
06-01-2020,24:00,0.63443,R,ugm-3,4.33873,R,ugm-3,5.31150,R,ugm-3
07-01-2020,01:00,0.79947,R,ugm-3,3.37999,R,ugm-3,4.60583,R,ugm-3
07-01-2020,02:00,0.65839,R,ugm-3,3.02944,R,ugm-3,4.03896,R,ugm-3
07-01-2020,03:00,0.52906,R,ugm-3,2.48372,R,ugm-3,3.29494,R,ugm-3
07-01-2020,04:00,1.26975,R,ugm-3,3.31435,R,ugm-3,5.26128,R,ugm-3
07-01-2020,05:00,0.56434,R,ugm-3,3.01423,R,ugm-3,3.87953,R,ugm-3
07-01-2020,06:00,1.79882,R,ugm-3,3.56601,R,ugm-3,6.32416,R,ugm-3
07-01-2020,07:00,4.09143,R,ugm-3,8.55380,R,ugm-3,14.82723,R,ugm-3
07-01-2020,08:00,9.94640,R,ugm-3,20.67455,R,ugm-3,35.92548,R,ugm-3
07-01-2020,09:00,10.40492,R,ugm-3,18.85547,R,ugm-3,34.80946,R,ugm-3
07-01-2020,10:00,6.87783,R,ugm-3,13.15646,R,ugm-3,23.70232,R,ugm-3
07-01-2020,11:00,5.81970,R,ugm-3,9.30505,R,ugm-3,18.22846,R,ugm-3
07-01-2020,12:00,6.03133,R,ugm-3,14.45441,R,ugm-3,23.70232,R,ugm-3
07-01-2020,13:00,5.99606,R,ugm-3,13.33932,R,ugm-3,22.53314,R,ugm-3
07-01-2020,14:00,6.17241,R,ugm-3,11.68717,R,ugm-3,21.15139,R,ugm-3
07-01-2020,15:00,7.58325,R,ugm-3,13.98803,R,ugm-3,25.61551,R,ugm-3
07-01-2020,16:00,6.91310,R,ugm-3,13.95269,R,ugm-3,24.55262,R,ugm-3
07-01-2020,17:00,7.72433,R,ugm-3,15.41917,R,ugm-3,27.26298,R,ugm-3
07-01-2020,18:00,5.22010,R,ugm-3,10.80901,R,ugm-3,18.81305,R,ugm-3
07-01-2020,19:00,2.57478,R,ugm-3,4.87400,R,ugm-3,8.82194,R,ugm-3
07-01-2020,20:00,1.58719,R,ugm-3,3.14648,R,ugm-3,5.58014,R,ugm-3
07-01-2020,21:00,1.26975,R,ugm-3,1.98575,R,ugm-3,3.93267,R,ugm-3
07-01-2020,22:00,1.30502,R,ugm-3,1.34708,R,ugm-3,3.34809,R,ugm-3
07-01-2020,23:00,0.63488,R,ugm-3,0.88658,R,ugm-3,1.86005,R,ugm-3
07-01-2020,24:00,0.52906,R,ugm-3,1.20826,R,ugm-3,2.01948,R,ugm-3
08-01-2020,01:00,0.42355,R,ugm-3,0.55583,R,ugm-3,1.20526,R,ugm-3
08-01-2020,02:00,0.51767,R,ugm-3,1.26228,R,ugm-3,2.05604,R,ugm-3
08-01-2020,03:00,0.38826,R,ugm-3,1.26575,R,ugm-3,1.86107,R,ugm-3
08-01-2020,04:00,0.52944,R,ugm-3,1.47466,R,ugm-3,2.28646,R,ugm-3
08-01-2020,05:00,0.49414,R,ugm-3,1.74147,R,ugm-3,2.49915,R,ugm-3
08-01-2020,06:00,1.02358,R,ugm-3,3.58835,R,ugm-3,5.15782,R,ugm-3
08-01-2020,07:00,3.31782,R,ugm-3,10.97110,R,ugm-3,16.05836,R,ugm-3
08-01-2020,08:00,7.94160,R,ugm-3,24.83173,R,ugm-3,37.00867,R,ugm-3
08-01-2020,09:00,14.47135,R,ugm-3,29.70812,R,ugm-3,51.89721,R,ugm-3
08-01-2020,10:00,9.03577,R,ugm-3,26.98250,R,ugm-3,40.83715,R,ugm-3
08-01-2020,11:00,9.60051,R,ugm-3,14.63113,R,ugm-3,29.35170,R,ugm-3
08-01-2020,12:00,6.42387,R,ugm-3,12.16398,R,ugm-3,22.01378,R,ugm-3
08-01-2020,13:00,5.61206,R,ugm-3,11.01594,R,ugm-3,19.62097,R,ugm-3
08-01-2020,14:00,5.68265,R,ugm-3,11.27991,R,ugm-3,19.99319,R,ugm-3
08-01-2020,15:00,9.84758,R,ugm-3,23.23859,R,ugm-3,38.33800,R,ugm-3
08-01-2020,16:00,11.78886,R,ugm-3,30.04591,R,ugm-3,48.12190,R,ugm-3
08-01-2020,17:00,21.70703,R,ugm-3,44.29631,R,ugm-3,77.57995,R,ugm-3
08-01-2020,18:00,23.11887,R,ugm-3,52.87254,R,ugm-3,88.32097,R,ugm-3
08-01-2020,19:00,17.50681,R,ugm-3,48.60962,R,ugm-3,75.45302,R,ugm-3
08-01-2020,20:00,15.17727,R,ugm-3,50.42681,R,ugm-3,73.69830,R,ugm-3
08-01-2020,21:00,6.77683,R,ugm-3,28.26605,R,ugm-3,38.65704,R,ugm-3
08-01-2020,22:00,5.40029,R,ugm-3,18.51906,R,ugm-3,26.79938,R,ugm-3
08-01-2020,23:00,3.00016,R,ugm-3,13.42560,R,ugm-3,18.02577,R,ugm-3
08-01-2020,24:00,1.58832,R,ugm-3,19.89743,R,ugm-3,22.33282,R,ugm-3
09-01-2020,01:00,3.34373,R,ugm-3,23.74427,R,ugm-3,28.87125,R,ugm-3
09-01-2020,02:00,1.88379,R,ugm-3,13.56888,R,ugm-3,16.45732,R,ugm-3
09-01-2020,03:00,0.56514,R,ugm-3,4.45372,R,ugm-3,5.32025,R,ugm-3
09-01-2020,04:00,0.56514,R,ugm-3,11.90208,R,ugm-3,12.76861,R,ugm-3
09-01-2020,05:00,0.67110,R,ugm-3,13.17607,R,ugm-3,14.20508,R,ugm-3
09-01-2020,06:00,1.55413,R,ugm-3,10.06643,R,ugm-3,12.44940,R,ugm-3
09-01-2020,07:00,1.62477,R,ugm-3,13.78870,R,ugm-3,16.27998,R,ugm-3
09-01-2020,08:00,1.83669,R,ugm-3,7.93069,R,ugm-3,10.74691,R,ugm-3
09-01-2020,09:00,2.47247,R,ugm-3,13.76577,R,ugm-3,17.55684,R,ugm-3
09-01-2020,10:00,2.36651,R,ugm-3,10.89570,R,ugm-3,14.52429,R,ugm-3
09-01-2020,11:00,1.58945,R,ugm-3,5.22405,R,ugm-3,7.66117,R,ugm-3
09-01-2020,12:00,0.91835,R,ugm-3,3.11410,R,ugm-3,4.52222,R,ugm-3
09-01-2020,13:00,1.22446,R,ugm-3,4.50682,R,ugm-3,6.38431,R,ugm-3
09-01-2020,14:00,,,,,,,,,
09-01-2020,15:00,1.41284,R,ugm-3,4.43079,R,ugm-3,6.59712,R,ugm-3
09-01-2020,16:00,1.73073,R,ugm-3,7.88035,R,ugm-3,10.53410,R,ugm-3
09-01-2020,17:00,1.13027,R,ugm-3,13.27006,R,ugm-3,15.00312,R,ugm-3
09-01-2020,18:00,8.68898,R,ugm-3,40.25205,R,ugm-3,53.57496,R,ugm-3
09-01-2020,19:00,2.50779,R,ugm-3,34.83302,R,ugm-3,38.67825,R,ugm-3
09-01-2020,20:00,3.32018,R,ugm-3,22.52125,R,ugm-3,27.61212,R,ugm-3
09-01-2020,21:00,2.33119,R,ugm-3,17.54697,R,ugm-3,21.12141,R,ugm-3
09-01-2020,22:00,2.43715,R,ugm-3,18.98057,R,ugm-3,22.71749,R,ugm-3
09-01-2020,23:00,1.20092,R,ugm-3,13.69376,R,ugm-3,15.53514,R,ugm-3
09-01-2020,24:00,0.77706,R,ugm-3,8.06576,R,ugm-3,9.25724,R,ugm-3
10-01-2020,01:00,0.94239,R,ugm-3,7.44337,R,ugm-3,8.88835,R,ugm-3
10-01-2020,02:00,0.70679,R,ugm-3,8.72901,R,ugm-3,9.81274,R,ugm-3
10-01-2020,03:00,0.77747,R,ugm-3,10.32720,R,ugm-3,11.51930,R,ugm-3
10-01-2020,04:00,1.13087,R,ugm-3,13.99841,R,ugm-3,15.73238,R,ugm-3
10-01-2020,05:00,1.27223,R,ugm-3,14.10164,R,ugm-3,16.05236,R,ugm-3
10-01-2020,06:00,2.72115,R,ugm-3,20.09283,R,ugm-3,24.26520,R,ugm-3
10-01-2020,07:00,12.58090,R,ugm-3,44.06572,R,ugm-3,63.35617,R,ugm-3
10-01-2020,08:00,45.12868,R,ugm-3,66.52878,R,ugm-3,135.72512,R,ugm-3
10-01-2020,09:00,87.60688,R,ugm-3,82.61819,R,ugm-3,216.94687,R,ugm-3
10-01-2020,10:00,89.93930,R,ugm-3,74.02884,R,ugm-3,211.93384,R,ugm-3
10-01-2020,11:00,40.25181,R,ugm-3,55.12768,R,ugm-3,116.84626,R,ugm-3
10-01-2020,12:00,25.19714,R,ugm-3,44.98653,R,ugm-3,83.62161,R,ugm-3
10-01-2020,13:00,24.80840,R,ugm-3,40.35623,R,ugm-3,78.39526,R,ugm-3
10-01-2020,14:00,17.35175,R,ugm-3,24.96457,R,ugm-3,51.57021,R,ugm-3
10-01-2020,15:00,13.60575,R,ugm-3,24.46873,R,ugm-3,45.33059,R,ugm-3
10-01-2020,16:00,22.65269,R,ugm-3,39.28855,R,ugm-3,74.02219,R,ugm-3
10-01-2020,17:00,18.16456,R,ugm-3,39.39733,R,ugm-3,67.24926,R,ugm-3
10-01-2020,18:00,12.93430,R,ugm-3,31.04461,R,ugm-3,50.87692,R,ugm-3
10-01-2020,19:00,11.45003,R,ugm-3,26.01423,R,ugm-3,43.57070,R,ugm-3
10-01-2020,20:00,5.44230,R,ugm-3,16.13378,R,ugm-3,24.47852,R,ugm-3
10-01-2020,21:00,3.53396,R,ugm-3,13.03355,R,ugm-3,18.45222,R,ugm-3
10-01-2020,22:00,3.14523,R,ugm-3,12.82965,R,ugm-3,17.65226,R,ugm-3
10-01-2020,23:00,1.80232,R,ugm-3,8.43580,R,ugm-3,11.19932,R,ugm-3
10-01-2020,24:00,1.48426,R,ugm-3,6.89694,R,ugm-3,9.17278,R,ugm-3
11-01-2020,01:00,0.94288,R,ugm-3,3.11599,R,ugm-3,4.56172,R,ugm-3
11-01-2020,02:00,0.84860,R,ugm-3,2.54779,R,ugm-3,3.84895,R,ugm-3
11-01-2020,03:00,0.67181,R,ugm-3,2.44466,R,ugm-3,3.47475,R,ugm-3
11-01-2020,04:00,0.53037,R,ugm-3,1.59237,R,ugm-3,2.40560,R,ugm-3
11-01-2020,05:00,0.67181,R,ugm-3,1.05476,R,ugm-3,2.08485,R,ugm-3
11-01-2020,06:00,0.70716,R,ugm-3,1.26784,R,ugm-3,2.35214,R,ugm-3
11-01-2020,07:00,1.30825,R,ugm-3,2.27066,R,ugm-3,4.27661,R,ugm-3
11-01-2020,08:00,1.48504,R,ugm-3,2.26687,R,ugm-3,4.54390,R,ugm-3
11-01-2020,09:00,2.54579,R,ugm-3,3.31330,R,ugm-3,7.21679,R,ugm-3
11-01-2020,10:00,3.14688,R,ugm-3,4.20920,R,ugm-3,9.03435,R,ugm-3
11-01-2020,11:00,3.60653,R,ugm-3,5.64271,R,ugm-3,11.17265,R,ugm-3
11-01-2020,12:00,4.98550,R,ugm-3,5.34589,R,ugm-3,12.99021,R,ugm-3
11-01-2020,13:00,7.42522,R,ugm-3,8.34071,R,ugm-3,19.72588,R,ugm-3
11-01-2020,14:00,6.18768,R,ugm-3,10.98665,R,ugm-3,20.47429,R,ugm-3
11-01-2020,15:00,6.36447,R,ugm-3,8.36343,R,ugm-3,18.12215,R,ugm-3
11-01-2020,16:00,3.39438,R,ugm-3,4.31082,R,ugm-3,9.51547,R,ugm-3
11-01-2020,17:00,3.00544,R,ugm-3,6.88512,R,ugm-3,11.49340,R,ugm-3
11-01-2020,18:00,6.57662,R,ugm-3,11.40597,R,ugm-3,21.48998,R,ugm-3
11-01-2020,19:00,4.87943,R,ugm-3,8.23487,R,ugm-3,15.71655,R,ugm-3
11-01-2020,20:00,3.60653,R,ugm-3,8.42251,R,ugm-3,13.95245,R,ugm-3
11-01-2020,21:00,1.76791,R,ugm-3,5.14752,R,ugm-3,7.85828,R,ugm-3
11-01-2020,22:00,1.76791,R,ugm-3,5.14752,R,ugm-3,7.85828,R,ugm-3
11-01-2020,23:00,1.30825,R,ugm-3,3.50018,R,ugm-3,5.50614,R,ugm-3
11-01-2020,24:00,1.90934,R,ugm-3,8.56578,R,ugm-3,11.49340,R,ugm-3
12-01-2020,01:00,1.46224,R,ugm-3,8.11774,R,ugm-3,10.35981,R,ugm-3
12-01-2020,02:00,,,,,,,,,
12-01-2020,03:00,0.56603,R,ugm-3,4.00836,R,ugm-3,4.87626,R,ugm-3
12-01-2020,04:00,0.35377,R,ugm-3,5.56628,R,ugm-3,6.10872,R,ugm-3
12-01-2020,05:00,0.81367,R,ugm-3,12.57739,R,ugm-3,13.82499,R,ugm-3
12-01-2020,06:00,1.16743,R,ugm-3,14.44629,R,ugm-3,16.23633,R,ugm-3
12-01-2020,07:00,3.82069,R,ugm-3,27.57888,R,ugm-3,33.43718,R,ugm-3
12-01-2020,08:00,4.20983,R,ugm-3,28.05391,R,ugm-3,34.50889,R,ugm-3
12-01-2020,09:00,5.34189,R,ugm-3,34.83816,R,ugm-3,43.02894,R,ugm-3
12-01-2020,10:00,16.48556,R,ugm-3,46.63388,R,ugm-3,71.91138,R,ugm-3
12-01-2020,11:00,10.54227,R,ugm-3,40.15350,R,ugm-3,56.31808,R,ugm-3
12-01-2020,12:00,11.99271,R,ugm-3,31.71363,R,ugm-3,50.10219,R,ugm-3
12-01-2020,13:00,6.08480,R,ugm-3,13.92610,R,ugm-3,23.25599,R,ugm-3
12-01-2020,14:00,4.70511,R,ugm-3,11.75478,R,ugm-3,18.96917,R,ugm-3
12-01-2020,15:00,4.52822,R,ugm-3,10.79354,R,ugm-3,17.73671,R,ugm-3
12-01-2020,16:00,4.91737,R,ugm-3,15.50180,R,ugm-3,23.04165,R,ugm-3
12-01-2020,17:00,10.57764,R,ugm-3,27.29239,R,ugm-3,43.51121,R,ugm-3
12-01-2020,18:00,16.73319,R,ugm-3,34.09033,R,ugm-3,59.74754,R,ugm-3
12-01-2020,19:00,5.66028,R,ugm-3,18.97101,R,ugm-3,27.64998,R,ugm-3
12-01-2020,20:00,5.05887,R,ugm-3,14.85614,R,ugm-3,22.61297,R,ugm-3
12-01-2020,21:00,4.63435,R,ugm-3,17.86481,R,ugm-3,24.97072,R,ugm-3
12-01-2020,22:00,4.28058,R,ugm-3,17.65706,R,ugm-3,24.22053,R,ugm-3
12-01-2020,23:00,2.01647,R,ugm-3,7.25007,R,ugm-3,10.34195,R,ugm-3
12-01-2020,24:00,1.37969,R,ugm-3,7.31550,R,ugm-3,9.43100,R,ugm-3
13-01-2020,01:00,1.08546,R,ugm-3,5.71222,R,ugm-3,7.37656,R,ugm-3
13-01-2020,02:00,0.75510,R,ugm-3,6.00390,R,ugm-3,7.16171,R,ugm-3
13-01-2020,03:00,0.60172,R,ugm-3,7.40286,R,ugm-3,8.32548,R,ugm-3
13-01-2020,04:00,1.16804,R,ugm-3,7.66248,R,ugm-3,9.45345,R,ugm-3
13-01-2020,05:00,1.09725,R,ugm-3,5.51508,R,ugm-3,7.19751,R,ugm-3
13-01-2020,06:00,2.22990,R,ugm-3,6.73258,R,ugm-3,10.15172,R,ugm-3
13-01-2020,07:00,6.15878,R,ugm-3,13.33089,R,ugm-3,22.77423,R,ugm-3
13-01-2020,08:00,13.55640,R,ugm-3,23.52687,R,ugm-3,44.31306,R,ugm-3
13-01-2020,09:00,14.19351,R,ugm-3,24.21507,R,ugm-3,45.97815,R,ugm-3
13-01-2020,10:00,10.58319,R,ugm-3,17.07460,R,ugm-3,33.30193,R,ugm-3
13-01-2020,11:00,9.59212,R,ugm-3,19.61476,R,ugm-3,34.32248,R,ugm-3
13-01-2020,12:00,13.48561,R,ugm-3,23.58170,R,ugm-3,44.25934,R,ugm-3
13-01-2020,13:00,12.14059,R,ugm-3,20.43390,R,ugm-3,39.04920,R,ugm-3
13-01-2020,14:00,9.45054,R,ugm-3,18.11304,R,ugm-3,32.60367,R,ugm-3
13-01-2020,15:00,13.98114,R,ugm-3,28.30060,R,ugm-3,49.73805,R,ugm-3
13-01-2020,16:00,10.05226,R,ugm-3,19.87605,R,ugm-3,35.28931,R,ugm-3
13-01-2020,17:00,8.74264,R,ugm-3,16.56655,R,ugm-3,29.97174,R,ugm-3
13-01-2020,18:00,6.44194,R,ugm-3,11.17791,R,ugm-3,21.05542,R,ugm-3
13-01-2020,19:00,3.00860,R,ugm-3,8.06310,R,ugm-3,12.67622,R,ugm-3
13-01-2020,20:00,2.86702,R,ugm-3,6.66880,R,ugm-3,11.06484,R,ugm-3
13-01-2020,21:00,2.61925,R,ugm-3,7.20984,R,ugm-3,11.22598,R,ugm-3
13-01-2020,22:00,1.52200,R,ugm-3,4.81011,R,ugm-3,7.14380,R,ugm-3
13-01-2020,23:00,1.38042,R,ugm-3,2.98611,R,ugm-3,5.10272,R,ugm-3
13-01-2020,24:00,0.84949,R,ugm-3,2.24252,R,ugm-3,3.54504,R,ugm-3
14-01-2020,01:00,0.51940,R,ugm-3,1.71614,R,ugm-3,2.51255,R,ugm-3
14-01-2020,02:00,0.51940,R,ugm-3,0.28040,R,ugm-3,1.07681,R,ugm-3
14-01-2020,03:00,0.38955,R,ugm-3,0.04878,R,ugm-3,0.64609,R,ugm-3
14-01-2020,04:00,0.63745,R,ugm-3,2.19917,R,ugm-3,3.17658,R,ugm-3
14-01-2020,05:00,0.60204,R,ugm-3,1.06899,R,ugm-3,1.99209,R,ugm-3
14-01-2020,06:00,1.87694,R,ugm-3,3.36756,R,ugm-3,6.24548,R,ugm-3
14-01-2020,07:00,4.60380,R,ugm-3,10.33137,R,ugm-3,17.39044,R,ugm-3
14-01-2020,08:00,13.38644,R,ugm-3,16.03202,R,ugm-3,36.55760,R,ugm-3
14-01-2020,09:00,11.43867,R,ugm-3,23.00274,R,ugm-3,40.54179,R,ugm-3
14-01-2020,10:00,11.61574,R,ugm-3,24.77717,R,ugm-3,42.58772,R,ugm-3
14-01-2020,11:00,13.31561,R,ugm-3,23.24755,R,ugm-3,43.66453,R,ugm-3
14-01-2020,12:00,12.99688,R,ugm-3,22.49793,R,ugm-3,42.42620,R,ugm-3
14-01-2020,13:00,10.58874,R,ugm-3,25.16739,R,ugm-3,41.40324,R,ugm-3
14-01-2020,14:00,12.32402,R,ugm-3,29.29055,R,ugm-3,48.18712,R,ugm-3
14-01-2020,15:00,19.01724,R,ugm-3,34.96451,R,ugm-3,64.12387,R,ugm-3
14-01-2020,16:00,18.27355,R,ugm-3,58.12553,R,ugm-3,86.14458,R,ugm-3
14-01-2020,17:00,11.47409,R,ugm-3,49.16869,R,ugm-3,66.76205,R,ugm-3
14-01-2020,18:00,50.88970,R,ugm-3,78.37645,R,ugm-3,156.40624,R,ugm-3
14-01-2020,19:00,15.51127,R,ugm-3,54.12339,R,ugm-3,77.90700,R,ugm-3
14-01-2020,20:00,6.44532,R,ugm-3,22.63689,R,ugm-3,32.51958,R,ugm-3
14-01-2020,21:00,2.44356,R,ugm-3,9.22879,R,ugm-3,12.97553,R,ugm-3
14-01-2020,22:00,2.47897,R,ugm-3,6.42864,R,ugm-3,10.22967,R,ugm-3
14-01-2020,23:00,1.06242,R,ugm-3,4.23958,R,ugm-3,5.86860,R,ugm-3
14-01-2020,24:00,1.06242,R,ugm-3,3.21662,R,ugm-3,4.84563,R,ugm-3
15-01-2020,01:00,0.51968,R,ugm-3,1.28994,R,ugm-3,2.08676,R,ugm-3
15-01-2020,02:00,0.47243,R,ugm-3,1.00259,R,ugm-3,1.72697,R,ugm-3
15-01-2020,03:00,0.38976,R,ugm-3,1.07539,R,ugm-3,1.67301,R,ugm-3
15-01-2020,04:00,0.63778,R,ugm-3,1.61254,R,ugm-3,2.59046,R,ugm-3
15-01-2020,05:00,0.95668,R,ugm-3,1.44739,R,ugm-3,2.91427,R,ugm-3
15-01-2020,06:00,1.59446,R,ugm-3,3.05993,R,ugm-3,5.50473,R,ugm-3
15-01-2020,07:00,4.25189,R,ugm-3,8.53758,R,ugm-3,15.05705,R,ugm-3
15-01-2020,08:00,8.14946,R,ugm-3,17.07877,R,ugm-3,29.57442,R,ugm-3
15-01-2020,09:00,11.09035,R,ugm-3,20.23291,R,ugm-3,37.23787,R,ugm-3
15-01-2020,10:00,9.28329,R,ugm-3,21.06084,R,ugm-3,35.29502,R,ugm-3
15-01-2020,11:00,8.50378,R,ugm-3,18.04658,R,ugm-3,31.08552,R,ugm-3
15-01-2020,12:00,8.82267,R,ugm-3,13.51002,R,ugm-3,27.03793,R,ugm-3
15-01-2020,13:00,7.44081,R,ugm-3,11.58126,R,ugm-3,22.99034,R,ugm-3
15-01-2020,14:00,7.40538,R,ugm-3,10.39433,R,ugm-3,21.74907,R,ugm-3
15-01-2020,15:00,10.02737,R,ugm-3,14.46917,R,ugm-3,29.84426,R,ugm-3
15-01-2020,16:00,7.12192,R,ugm-3,12.82577,R,ugm-3,23.74589,R,ugm-3
15-01-2020,17:00,13.03913,R,ugm-3,17.29878,R,ugm-3,37.29183,R,ugm-3
15-01-2020,18:00,7.44081,R,ugm-3,15.08917,R,ugm-3,26.49825,R,ugm-3
15-01-2020,19:00,5.10227,R,ugm-3,9.55430,R,ugm-3,17.37767,R,ugm-3
15-01-2020,20:00,3.29521,R,ugm-3,6.17274,R,ugm-3,11.22533,R,ugm-3
15-01-2020,21:00,2.37397,R,ugm-3,5.26467,R,ugm-3,8.90471,R,ugm-3
15-01-2020,22:00,2.51570,R,ugm-3,5.64100,R,ugm-3,9.49836,R,ugm-3